Weather History for KMEZ - December, 2012

Change the Weather History Date:

Friday, December 7, 2012

  Actual Average (KFSM) Record (KFSM)
Temperature  
Mean Temperature 60 °F -  
Max Temperature 62 °F 52 °F 81 °F (1966)
Min Temperature 57 °F 33 °F 6 °F (1950)
Degree Days  
Heating Degree Days 6    
Growing Degree Days 10 (Base 50)    
Moisture  
Dew Point 58 °F    
Average Humidity 92    
Maximum Humidity 100    
Minimum Humidity 77    
Precipitation  
Precipitation 0.00 in - - ()
Sea Level Pressure  
Sea Level Pressure 29.87 in    
Wind  
Wind Speed 2 mph (SSW)    
Max Wind Speed 6 mph    
Max Gust Speed -    
Visibility 7 miles    
Events      
Averages and records for this station are not official NWS values.
T = Trace of Precipitation, MM = Missing Value Source: NWS Daily Summary

Daily Weather History Graph

Daily Weather History Graph

Search for Another Location

Airport or City:

Trip Planner

Search our weather history database for the weather conditions in past years. The results will help you decide how hot, cold, wet, or windy it might be!

Date:

Astronomy

Dec. 07, 2012 Rise Set
Actual Time 7:10 AM CST 5:06 PM CST
Civil Twilight 6:43 AM CST 5:33 PM CST
Nautical Twilight 6:11 AM CST 6:05 PM CST
Astronomical Twilight 5:41 AM CST 6:35 PM CST
Moon 12:44 AM CST (12/7) 12:51 PM CST (12/7)
Length of Visible Light 10h 50m
Length of Day
9h 55m
Last Quarter, 38% of the Moon is Illuminated
Dec 7
Last Quarter
Dec 13
New
Dec 19
First Quarter
Dec 28
Full
Jan 4
Last Quarter

Hourly Weather History & Observations

Time (CST) Temp. Dew Point Humidity Pressure Visibility Wind Dir Wind Speed Gust Speed Precip Events Conditions
12:15 AM 59.0 °F 51.8 °F 77% 29.92 in 10.0 mi Calm Calm - N/A   Overcast
12:35 AM 59.0 °F 51.8 °F 77% 29.91 in 10.0 mi SW 5.8 mph - N/A   Overcast
12:55 AM 59.0 °F 51.8 °F 77% 29.91 in 10.0 mi WSW 3.5 mph - N/A   Overcast
1:15 AM 59.0 °F 51.8 °F 77% 29.91 in 10.0 mi Calm Calm - N/A   Overcast
1:35 AM 59.0 °F 51.8 °F 77% 29.90 in 10.0 mi SW 4.6 mph - N/A   Overcast
1:55 AM 59.0 °F 51.8 °F 77% 29.90 in 10.0 mi WSW 3.5 mph - N/A   Overcast
2:15 AM 59.0 °F 53.6 °F 82% 29.90 in 10.0 mi SW 4.6 mph - N/A   Overcast
2:35 AM 59.0 °F 53.6 °F 82% 29.90 in 7.0 mi SW 3.5 mph - N/A   Overcast
2:55 AM 59.0 °F 53.6 °F 82% 29.90 in 7.0 mi Calm Calm - N/A   Overcast
3:15 AM 59.0 °F 55.4 °F 88% 29.90 in 7.0 mi Calm Calm - N/A   Overcast
3:35 AM 57.2 °F 55.4 °F 94% 29.89 in 7.0 mi Calm Calm - N/A   Overcast
3:55 AM 59.0 °F 57.2 °F 94% 29.89 in 7.0 mi SSE 3.5 mph - N/A   Overcast
4:15 AM 59.0 °F 57.2 °F 94% 29.89 in 7.0 mi Calm Calm - N/A   Overcast
4:35 AM 59.0 °F 57.2 °F 94% 29.89 in 7.0 mi Calm Calm - N/A   Overcast
4:55 AM 59.0 °F 57.2 °F 94% 29.89 in 7.0 mi South 4.6 mph - N/A   Overcast
5:15 AM 59.0 °F 57.2 °F 94% 29.87 in 7.0 mi Calm Calm - N/A   Overcast
5:35 AM 59.0 °F 57.2 °F 94% 29.88 in 7.0 mi Calm Calm - N/A   Overcast
5:55 AM 59.0 °F 57.2 °F 94% 29.88 in 7.0 mi Calm Calm - N/A   Overcast
6:15 AM 59.0 °F 59.0 °F 100% 29.89 in 5.0 mi Calm Calm - N/A   Overcast
6:35 AM 59.0 °F 59.0 °F 100% 29.88 in 5.0 mi Calm Calm - N/A   Overcast
6:55 AM 59.0 °F 59.0 °F 100% 29.89 in 5.0 mi Calm Calm - N/A   Overcast
7:15 AM 59.0 °F 59.0 °F 100% 29.90 in 3.0 mi Calm Calm - N/A   Overcast
7:35 AM 59.0 °F 59.0 °F 100% 29.90 in 5.0 mi Calm Calm - N/A   Overcast
7:55 AM 59.0 °F 57.2 °F 94% 29.90 in 4.0 mi Calm Calm - N/A   Overcast
8:15 AM 59.0 °F 57.2 °F 94% 29.90 in 4.0 mi SSE 3.5 mph - N/A   Overcast
8:35 AM 59.0 °F 57.2 °F 94% 29.89 in 7.0 mi Calm Calm - N/A   Overcast
8:55 AM 59.0 °F 57.2 °F 94% 29.89 in 10.0 mi Calm Calm - N/A   Overcast
9:15 AM 59.0 °F 57.2 °F 94% 29.89 in 10.0 mi SSE 3.5 mph - N/A   Overcast
9:35 AM 59.0 °F 59.0 °F 100% 29.90 in 7.0 mi SSE 3.5 mph - N/A   Overcast
9:55 AM 59.0 °F 59.0 °F 100% 29.90 in 7.0 mi SSE 4.6 mph - N/A   Overcast
10:15 AM 59.0 °F 59.0 °F 100% 29.90 in 7.0 mi South 3.5 mph - N/A   Overcast
10:35 AM 60.8 °F 59.0 °F 94% 29.90 in 7.0 mi Calm Calm - N/A   Overcast
10:55 AM 60.8 °F 59.0 °F 94% 29.89 in 7.0 mi SSE 5.8 mph - N/A   Overcast
11:15 AM 60.8 °F 59.0 °F 94% 29.88 in 7.0 mi South 4.6 mph - N/A   Overcast
11:35 AM 60.8 °F 59.0 °F 94% 29.88 in 7.0 mi Calm Calm - N/A   Overcast
12:15 PM 59.0 °F 59.0 °F 100% 29.86 in 4.0 mi South 4.6 mph - N/A   Overcast
12:35 PM 60.8 °F 59.0 °F 94% 29.85 in 3.0 mi SSW 4.6 mph - N/A   Overcast
1:15 PM 60.8 °F 59.0 °F 94% 29.83 in 4.0 mi South 4.6 mph - N/A   Overcast
1:35 PM 60.8 °F 59.0 °F 94% 29.82 in 5.0 mi Calm Calm - N/A   Overcast
1:55 PM 60.8 °F 59.0 °F 94% 29.82 in 5.0 mi South 3.5 mph - N/A   Overcast
2:15 PM 60.8 °F 59.0 °F 94% 29.81 in 5.0 mi South 3.5 mph - N/A   Overcast
2:35 PM 62.6 °F 59.0 °F 88% 29.81 in 5.0 mi South 3.5 mph - N/A   Overcast
2:55 PM 62.6 °F 59.0 °F 88% 29.81 in 7.0 mi SSW 3.5 mph - N/A   Overcast
3:15 PM 62.6 °F 59.0 °F 88% 29.81 in 7.0 mi SSW 3.5 mph - N/A   Overcast
3:35 PM 62.6 °F 59.0 °F 88% 29.82 in 7.0 mi SW 4.6 mph - N/A   Overcast
3:55 PM 62.6 °F 59.0 °F 88% 29.81 in 7.0 mi SSW 3.5 mph - N/A   Overcast
4:15 PM 62.6 °F 59.0 °F 88% 29.82 in 7.0 mi Calm Calm - N/A   Overcast
4:35 PM 62.6 °F 59.0 °F 88% 29.82 in 7.0 mi Calm Calm - N/A   Overcast
4:55 PM 62.6 °F 59.0 °F 88% 29.83 in 7.0 mi Calm Calm - N/A   Overcast
5:15 PM 62.6 °F 59.0 °F 88% 29.83 in 7.0 mi Calm Calm - N/A   Overcast
5:35 PM 60.8 °F 59.0 °F 94% 29.83 in 7.0 mi Calm Calm - N/A   Overcast
5:55 PM 60.8 °F 59.0 °F 94% 29.83 in 7.0 mi Calm Calm - N/A   Overcast
6:15 PM 60.8 °F 59.0 °F 94% 29.83 in 7.0 mi Calm Calm - N/A   Overcast
6:35 PM 60.8 °F 59.0 °F 94% 29.84 in 7.0 mi Calm Calm - N/A   Overcast
6:55 PM 60.8 °F 59.0 °F 94% 29.84 in 7.0 mi Calm Calm - N/A   Overcast
7:15 PM 60.8 °F 59.0 °F 94% 29.85 in 7.0 mi Calm Calm - N/A   Overcast
7:35 PM 59.0 °F 59.0 °F 100% 29.84 in 5.0 mi Calm Calm - N/A   Overcast
7:55 PM 60.8 °F 59.0 °F 94% 29.85 in 5.0 mi Calm Calm - N/A   Overcast
8:15 PM 60.8 °F 59.0 °F 94% 29.85 in 5.0 mi Calm Calm - N/A   Overcast
8:35 PM 60.8 °F 59.0 °F 94% 29.85 in 5.0 mi Calm Calm - N/A   Overcast
8:55 PM 60.8 °F 59.0 °F 94% 29.85 in 7.0 mi Calm Calm - N/A   Overcast
9:15 PM 60.8 °F 59.0 °F 94% 29.85 in 7.0 mi Calm Calm - N/A   Overcast
9:35 PM 60.8 °F 59.0 °F 94% 29.85 in 7.0 mi Calm Calm - N/A   Overcast
9:55 PM 60.8 °F 59.0 °F 94% 29.85 in 7.0 mi Calm Calm - N/A   Overcast
10:15 PM 59.0 °F 59.0 °F 100% 29.86 in 5.0 mi Calm Calm - N/A   Overcast
10:35 PM 60.8 °F 59.0 °F 94% 29.86 in 7.0 mi Calm Calm - N/A   Overcast
10:55 PM 62.6 °F 62.6 °F 100% 29.87 in 7.0 mi SW 3.5 mph - N/A   Overcast
11:15 PM 62.6 °F 60.8 °F 94% 29.87 in 7.0 mi NW 4.6 mph - N/A   Overcast
11:35 PM 60.8 °F 60.8 °F 100% 29.88 in 5.0 mi NW 5.8 mph - N/A   Overcast
11:55 PM 62.6 °F 60.8 °F 94% 29.88 in 5.0 mi WNW 4.6 mph - N/A   Overcast